Regional Weather Roundup
Issued by NWS Green Bay, WI

Home | Current Version | Previous Version | Text Only | Print | Product List | Glossary On
Versions: 1 2 3 4 5 6 7 8 9 10 11 12 13 14 15 16 17 18 19 20 21 22 23 24 25 26 27 28 29 30 31 32 33 34 35 36 37 38 39 40 41 42 43 44 45 46 47 48 49 50
000
ASUS43 KGRB 201011
RWRGRB

NORTH-CENTRAL AND NORTHEAST WISCONSIN REGIONAL WEATHER ROUNDUP
NATIONAL WEATHER SERVICE GREEN BAY WI
500 AM CDT SUN AUG 20 2017

WIZ005-009-010>012-018-019-201100-
NORTH CENTRAL WISCONSIN

CITY           SKY/WX    TMP DP  RH WIND       PRES   REMARKS
IRONWOOD       CLEAR     64  59  83 S9        29.92R
MANITOWISH WTR FOG       54  54 100 S5        29.95R VSB 3/4
ARBOR VITAE    CLEAR     57  56  96 CALM      29.97R FOG
EAGLE RIVER    CLOUDY    54  54 100 CALM      29.96R FOG
LAND O LAKES   CLEAR     50  50 100 CALM      29.98R FOG
RHINELANDER    PTCLDY    55  55 100 SW5       29.98R FOG
PHILLIPS       CLOUDY    58  58 100 CALM      29.96R
ANTIGO         CLEAR     53  53 100 CALM      29.99R
TOMAHAWK         N/A     49  49  97 CALM      29.97S
MERRILL        CLEAR     50  50 100 NE3       29.98S
$$

WIZ013-073-201100-
NORTHEAST WISCONSIN

CITY           SKY/WX    TMP DP  RH WIND       PRES   REMARKS
IRON MOUNTAIN  CLEAR     54  51  90 CALM      29.95R
MARINETTE      CLEAR     61  59  93 SW3       29.97R
OCONTO         CLEAR     55  55  97 CALM      29.97R
$$

WIZ017-030-035>037-045-201100-
CENTRAL WISCONSIN

CITY           SKY/WX    TMP DP  RH WIND       PRES   REMARKS
MEDFORD        CLOUDY    56  55  97 S6        29.98R
WAUSAU         CLEAR     55  55 100 E5        29.97R
MOSINEE        CLEAR     55  55 100 CALM      30.00R
MARSHFIELD     CLOUDY    57  55  93 S5        29.98R
WISC RAPIDS    CLOUDY    59  58  96 SW3       30.00R
STEVENS POINT  CLEAR     53  53 100 CALM      29.99S
WAUPACA        CLEAR     57  56  98 CALM      29.98S
SHAWANO        CLEAR     60  58  94 SW3       29.98R
CLINTONVILLE   PTCLDY    54  54 100 CALM      29.98R
WAUTOMA        NOT AVBL
$$

WIZ038-039-048-051-201100-
FOX VALLEY

CITY           SKY/WX    TMP DP  RH WIND       PRES   REMARKS
NWS GREEN BAY  CLEAR     57  57 100 CALM      29.98S FOG
APPLETON       CLEAR     61  57  88 S3        29.98S
OSHKOSH        PTCLDY    62  59  90 SW5       29.98R
FOND DU LAC    LGT RAIN  60  57  89 S5        30.00R
$$

WIZ022-050-052-201100-
EAST CENTRAL WISCONSIN

CITY           SKY/WX    TMP DP  RH WIND       PRES   REMARKS
EPHRAIM        FAIR      64  62  94 CALM      29.96R
WASHINGTON ISL FAIR      63  62  97 CALM      29.95R
STURGEON BAY   CLEAR     62  59  90 SW3       29.98
MANITOWOC      CLEAR     63  60  90 W5        30.00R
SHEBOYGAN      CLEAR     60  60 100 CALM      30.00R
$$

LMZ563-521-522-541>543-201100-
LAKESHORE

STATION/POSITION TIME  TEMP    WIND        PRES    VSBY  WAVE
                       AIR SEA DIR/SP/G                  HT/PER
                 (UTC) (F)     (DEG/KT/KT) (MB)    (MI)  (FT/S)
SHEBOYGAN LKSHOR 1000   66     210/  5/  6 1015.4R
KEWAUNEE LKSHORE 0942   65     300/  5/  6 1014.1R
NORTHPORT PIER   0940   66     240/  1/  5 1013.9S
N MID LAKE BUOY  0950   68 67  240/  8/ 10 1014.3R         1/ 4
S GREEN BAY BUOY 0930   70 71  220/  8/ 12 1014.3R
SISTER BAY LKSHO 1003   66        CALM       N/A
MENOMINEE LKSHOR 0942   64     200/  3/  4 1014.2R
$$




USA.gov is the U.S. government's official web portal to all federal, state and local government web resources and services.